{"data":{"norad_id":62107,"epoch":"2026-05-25T00:26:17.029824Z","epoch_age_seconds":70695,"freshness":"FRESH","line1":"1 62107U 24220V   26145.01825266  .00016056  00000+0  59142-3 0  9995","line2":"2 62107  42.9988 134.5668 0000961 330.9902  29.0896 15.27596191 84869","mean_motion":15.27596191,"eccentricity":9.61e-5,"inclination_deg":42.9988,"raan_deg":134.5668,"arg_perigee_deg":330.9902,"mean_anomaly_deg":29.0896,"bstar":0.00059142,"rev_number":8486,"period_min":94.26574957989,"perigee_km":482.34125946441,"apogee_km":483.65997011397,"semimajor_km":6861.1376147892,"source":"CELESTRAK","updated_at":"2026-05-25T13:38:19.560870Z"}}